Cumberland, WV

5:13 PM EDT on April 29, 2017 (GMT -0400)
Greater Cumberland Regional

Weather History for KCBE - October, 2013

Change the Weather History Date:

Saturday, October 5, 2013

  Actual Average (KMRB) Record (KMRB)
Temperature  
Mean Temperature 74 °F -  
Max Temperature 87 °F 71 °F 93 °F (1951)
Min Temperature 62 °F 48 °F 30 °F (1935)
Cooling Degree Days 10    
Growing Degree Days 24 (Base 50)    
Moisture  
Dew Point 62 °F    
Average Humidity 71    
Maximum Humidity 100    
Minimum Humidity 35    
Precipitation  
Precipitation 0.00 in - - ()
Sea Level Pressure  
Sea Level Pressure 30.11 in    
Wind  
Wind Speed 1 mph (SSE)    
Max Wind Speed 9 mph    
Max Gust Speed 16 mph    
Visibility 9 miles    
Events      
Averages and records for this station are not official NWS values.
T = Trace of Precipitation, MM = Missing Value Source: NWS Daily Summary

Daily Weather History Graph

Daily Weather History Graph

Search for Another Location

Airport or City:

Trip Planner

Search our weather history database for the weather conditions in past years. The results will help you decide how hot, cold, wet, or windy it might be!

Date:

Astronomy

Oct. 05, 2013 Rise Set
Actual Time 7:15 AM EDT 6:50 PM EDT
Civil Twilight 6:48 AM EDT 7:17 PM EDT
Nautical Twilight 6:17 AM EDT 7:48 PM EDT
Astronomical Twilight 5:45 AM EDT 8:20 PM EDT
Moon 7:52 AM EDT (10/5) 7:08 PM EDT (10/5)
Length of Visible Light 12h 29m
Length of Day
11h 35m
New Moon, 0% of the Moon is Illuminated
Oct 5
New Moon
Oct 11
First Quarter
Oct 18
Full
Oct 26
Last Quarter
Nov 3
New

Hourly Weather History & Observations

Time (EDT) Temp. Heat Index Dew Point Humidity Pressure Visibility Wind Dir Wind Speed Gust Speed Precip Events Conditions
12:18 AM 68.0 °F - 62.6 °F 83% 30.13 in 10.0 mi Calm Calm - N/A   Clear
12:38 AM 68.0 °F - 62.6 °F 83% 30.13 in 10.0 mi Calm Calm - N/A   Clear
12:58 AM 66.2 °F - 62.6 °F 88% 30.13 in 10.0 mi Calm Calm - N/A   Clear
1:18 AM 66.2 °F - 62.6 °F 88% 30.12 in 10.0 mi Calm Calm - N/A   Clear
1:38 AM 64.4 °F - 62.6 °F 94% 30.13 in 10.0 mi Calm Calm - N/A   Clear
1:58 AM 64.4 °F - 62.6 °F 94% 30.13 in 10.0 mi Calm Calm - N/A   Clear
2:18 AM 64.4 °F - 62.6 °F 94% 30.13 in 10.0 mi Calm Calm - N/A   Scattered Clouds
2:38 AM 66.2 °F - 62.6 °F 88% 30.13 in 10.0 mi Calm Calm - N/A   Scattered Clouds
2:58 AM 64.4 °F - 62.6 °F 94% 30.13 in 10.0 mi Calm Calm - N/A   Mostly Cloudy
3:18 AM 64.4 °F - 62.6 °F 94% 30.13 in 10.0 mi Calm Calm - N/A   Scattered Clouds
3:38 AM 64.4 °F - 62.6 °F 94% 30.13 in 10.0 mi Calm Calm - N/A   Scattered Clouds
3:58 AM 64.4 °F - 62.6 °F 94% 30.13 in 10.0 mi Calm Calm - N/A   Scattered Clouds
4:18 AM 64.4 °F - 62.6 °F 94% 30.13 in 10.0 mi NE 3.5 mph - N/A   Scattered Clouds
4:38 AM 64.4 °F - 62.6 °F 94% 30.14 in 10.0 mi Calm Calm - N/A   Clear
4:58 AM 64.4 °F - 62.6 °F 94% 30.14 in 10.0 mi Calm Calm - N/A   Clear
5:17 AM 64.4 °F - 62.6 °F 94% 30.14 in 10.0 mi Calm Calm - N/A   Clear
5:38 AM 62.6 °F - 60.8 °F 94% 30.14 in 5.0 mi Calm Calm - N/A   Clear
5:58 AM 62.6 °F - 60.8 °F 94% 30.15 in 5.0 mi Calm Calm - N/A   Clear
6:18 AM 62.6 °F - 60.8 °F 94% 30.15 in 4.0 mi Calm Calm - N/A   Clear
6:38 AM 62.6 °F - 62.6 °F 100% 30.15 in 7.0 mi Calm Calm - N/A   Scattered Clouds
6:58 AM 62.6 °F - 62.6 °F 100% 30.15 in 3.0 mi Calm Calm - N/A   Mostly Cloudy
7:18 AM 62.6 °F - 62.6 °F 100% 30.15 in 4.0 mi Calm Calm - N/A   Scattered Clouds
7:38 AM 62.6 °F - 62.6 °F 100% 30.15 in 4.0 mi Calm Calm - N/A   Scattered Clouds
7:59 AM 62.6 °F - 62.6 °F 100% 30.16 in 5.0 mi Calm Calm - N/A   Scattered Clouds
8:19 AM 62.6 °F - 62.6 °F 100% 30.16 in 7.0 mi Calm Calm - N/A   Scattered Clouds
8:39 AM 64.4 °F - 62.6 °F 94% 30.16 in 5.0 mi Calm Calm - N/A   Clear
8:59 AM 64.4 °F - 64.4 °F 100% 30.16 in 7.0 mi Calm Calm - N/A   Scattered Clouds
9:19 AM 68.0 °F - 64.4 °F 88% 30.17 in 10.0 mi Calm Calm - N/A   Scattered Clouds
9:39 AM 69.8 °F - 64.4 °F 83% 30.16 in 10.0 mi Calm Calm - N/A   Clear
9:59 AM 73.4 °F - 64.4 °F 73% 30.15 in 10.0 mi Calm Calm - N/A   Scattered Clouds
10:18 AM 73.4 °F - 64.4 °F 73% 30.15 in 10.0 mi Calm Calm - N/A   Clear
10:39 AM 77.0 °F - 64.4 °F 65% 30.15 in 10.0 mi South 3.5 mph - N/A   Clear
10:59 AM 78.8 °F - 64.4 °F 61% 30.15 in 10.0 mi SSE 3.5 mph - N/A   Clear
11:19 AM 80.6 °F 82.3 °F 64.4 °F 58% 30.14 in 10.0 mi Calm Calm - N/A   Clear
11:39 AM 82.4 °F 83.9 °F 64.4 °F 54% 30.14 in 10.0 mi Calm Calm - N/A   Clear
11:59 AM 82.4 °F 83.4 °F 62.6 °F 51% 30.13 in 10.0 mi East 5.8 mph - N/A   Clear
12:19 PM 84.2 °F 85.0 °F 62.6 °F 48% 30.12 in 10.0 mi SE 4.6 mph - N/A   Clear
12:39 PM 86.0 °F 86.6 °F 62.6 °F 45% 30.12 in 10.0 mi ESE 5.8 mph - N/A   Clear
12:59 PM 84.2 °F 85.0 °F 62.6 °F 48% 30.10 in 10.0 mi SE 5.8 mph - N/A   Scattered Clouds
1:19 PM 86.0 °F 86.6 °F 62.6 °F 45% 30.10 in 10.0 mi SE 3.5 mph - N/A   Scattered Clouds
1:39 PM 84.2 °F 84.4 °F 60.8 °F 45% 30.09 in 10.0 mi East 4.6 mph - N/A   Mostly Cloudy
1:59 PM 84.2 °F 84.4 °F 60.8 °F 45% 30.08 in 10.0 mi Calm Calm - N/A   Mostly Cloudy
2:19 PM 86.0 °F 85.4 °F 59.0 °F 40% 30.07 in 10.0 mi South 3.5 mph - N/A   Scattered Clouds
2:39 PM 84.2 °F 83.5 °F 57.2 °F 40% 30.07 in 10.0 mi SE 4.6 mph - N/A   Scattered Clouds
2:59 PM 84.2 °F 83.8 °F 59.0 °F 42% 30.07 in 10.0 mi SSE 6.9 mph - N/A   Mostly Cloudy
3:19 PM 86.0 °F 85.4 °F 59.0 °F 40% 30.06 in 10.0 mi South 9.2 mph - N/A   Scattered Clouds
3:39 PM 87.8 °F 87.1 °F 59.0 °F 38% 30.05 in 10.0 mi South 9.2 mph 16.1 mph N/A   Scattered Clouds
3:59 PM 87.8 °F 87.1 °F 59.0 °F 38% - 10.0 mi South 8.1 mph - N/A   Scattered Clouds
4:19 PM 87.8 °F 86.5 °F 57.2 °F 35% 30.05 in 10.0 mi South 6.9 mph - N/A   Clear
4:40 PM 86.0 °F 85.4 °F 59.0 °F 40% 30.05 in 10.0 mi South 3.5 mph - N/A   Clear
5:00 PM 86.0 °F 85.4 °F 59.0 °F 40% 30.05 in 10.0 mi South 3.5 mph - N/A   Clear
5:20 PM 87.8 °F 87.1 °F 59.0 °F 38% 30.05 in 10.0 mi South 4.6 mph - N/A   Clear
5:40 PM 86.0 °F 85.4 °F 59.0 °F 40% 30.05 in 10.0 mi SSW 6.9 mph - N/A   Clear
6:00 PM 84.2 °F 83.8 °F 59.0 °F 42% 30.05 in 10.0 mi SSW 5.8 mph - N/A   Clear
6:20 PM 82.4 °F 82.5 °F 59.0 °F 45% 30.05 in 10.0 mi SSW 4.6 mph - N/A   Clear
6:40 PM 80.6 °F 81.5 °F 60.8 °F 51% 30.04 in 10.0 mi SSW 4.6 mph - N/A   Clear
7:00 PM 78.8 °F - 60.8 °F 54% 30.05 in 10.0 mi Calm Calm - N/A   Clear
7:20 PM 78.8 °F - 60.8 °F 54% 30.05 in 10.0 mi Calm Calm - N/A   Clear
7:40 PM 78.8 °F - 60.8 °F 54% 30.05 in 10.0 mi Calm Calm - N/A   Clear
8:00 PM 77.0 °F - 60.8 °F 57% 30.04 in 10.0 mi Calm Calm - N/A   Clear
8:20 PM 73.4 °F - 62.6 °F 69% 30.05 in 10.0 mi North 3.5 mph - N/A   Clear
8:40 PM 73.4 °F - 62.6 °F 69% 30.06 in 10.0 mi NW 3.5 mph - N/A   Clear
9:00 PM 73.4 °F - 62.6 °F 69% 30.07 in 10.0 mi Calm Calm - N/A   Clear
9:20 PM 71.6 °F - 62.6 °F 73% 30.08 in 10.0 mi North 4.6 mph - N/A   Clear
9:40 PM 73.4 °F - 62.6 °F 69% 30.08 in 10.0 mi North 3.5 mph - N/A   Clear
10:00 PM 71.6 °F - 62.6 °F 73% 30.08 in 10.0 mi North 3.5 mph - N/A   Clear
10:20 PM 71.6 °F - 62.6 °F 73% 30.08 in 10.0 mi North 3.5 mph - N/A   Clear
10:40 PM 69.8 °F - 62.6 °F 78% 30.08 in 10.0 mi Calm Calm - N/A   Clear
11:00 PM 68.0 °F - 62.6 °F 83% 30.08 in 10.0 mi Calm Calm - N/A   Clear
11:20 PM 66.2 °F - 62.6 °F 88% 30.08 in 10.0 mi Calm Calm - N/A   Clear
11:40 PM 68.0 °F - 62.6 °F 83% 30.07 in 10.0 mi Calm Calm - N/A   Clear